Location: Archemont
(49.1579°N, 1.7598°E)
Time: 04:54:33
(UTC+00:00)

Transit 2A - Pass Details

Date: 17 April 2024
Orbit: 594 x 958 km, 66.7° (Epoch: 21 May)

Event Time Altitude Azimuth Distance (km) Brightness Sun altitude
Rises 06:33:01 0° 189° (S) 2,830 8.9 14.7°
Reaches altitude 10° 06:35:20 10° 180° (S) 1,951 8.2 15.0°
Maximum altitude 06:39:17 34° 114° (ESE) 1,030 8.0 15.7°
Drops below altitude 10° 06:43:31 10° 50° (NE) 2,089 9.1 16.4°
Sets 06:46:04 0° 42° (NE) 3,064 9.7 16.8°
